Time,TemperatureF,DewpointF,PressureIn,WindDirection,WindDirectionDegrees,WindSpeedMPH,WindSpeedGustMPH,Humidity,HourlyPrecipIn,Conditions,Clouds,dailyrainin,SoftwareType,DateUTC
2013-01-14 00:03:00,39.0,35.0,30.19,North,360,11.0,19.0,87,0.00,,,0.99,,2013-01-14 06:03:00,
2013-01-14 00:12:00,39.0,35.0,30.19,North,360,11.0,19.0,87,0.00,,,0.99,,2013-01-14 06:12:00,
2013-01-14 00:22:00,39.0,35.0,30.19,NNE,17,13.0,20.0,87,0.00,,,0.99,,2013-01-14 06:22:00,
2013-01-14 00:33:00,39.0,36.0,30.20,North,360,10.0,16.0,88,0.00,,,0.99,,2013-01-14 06:33:00,
2013-01-14 00:43:00,39.0,36.0,30.20,North,360,10.0,16.0,88,0.00,,,0.99,,2013-01-14 06:43:00,
2013-01-14 00:52:00,39.0,36.0,30.20,North,349,8.0,16.0,89,0.00,,,0.99,,2013-01-14 06:52:00,
2013-01-14 01:02:00,39.0,36.0,30.19,North,360,9.0,15.0,89,0.00,,,0.99,,2013-01-14 07:02:00,
2013-01-14 01:12:00,39.0,36.0,30.19,North,360,9.0,15.0,89,0.00,,,0.99,,2013-01-14 07:12:00,
2013-01-14 01:22:00,39.0,36.0,30.20,North,355,11.0,15.0,89,0.00,,,0.99,,2013-01-14 07:22:00,
2013-01-14 01:33:00,39.0,36.0,30.19,North,5,10.0,15.0,88,0.00,,,0.99,,2013-01-14 07:33:00,
2013-01-14 01:42:00,39.0,36.0,30.19,North,5,10.0,15.0,88,0.00,,,0.99,,2013-01-14 07:42:00,
2013-01-14 01:52:00,39.0,36.0,30.20,North,5,10.0,15.0,88,0.00,,,0.99,,2013-01-14 07:52:00,
2013-01-14 02:02:00,39.0,36.0,30.20,North,11,11.0,16.0,88,0.00,,,0.99,,2013-01-14 08:02:00,
2013-01-14 02:12:00,39.0,36.0,30.20,North,11,11.0,16.0,88,0.00,,,0.99,,2013-01-14 08:12:00,
2013-01-14 02:22:00,39.0,36.0,30.20,North,11,11.0,16.0,88,0.00,,,0.99,,2013-01-14 08:22:00,
2013-01-14 02:32:00,39.0,35.0,30.20,North,5,11.0,17.0,87,0.00,,,0.99,,2013-01-14 08:32:00,
2013-01-14 02:43:00,39.0,35.0,30.20,North,5,11.0,17.0,87,0.00,,,0.99,,2013-01-14 08:43:00,
2013-01-14 02:53:00,39.0,35.0,30.20,NNW,347,11.0,18.0,87,0.00,,,0.99,,2013-01-14 08:53:00,
2013-01-14 03:02:00,39.0,35.0,30.21,North,350,11.0,16.0,86,0.00,,,0.99,,2013-01-14 09:02:00,
2013-01-14 03:12:00,39.0,35.0,30.21,North,350,11.0,16.0,86,0.00,,,0.99,,2013-01-14 09:12:00,
2013-01-14 03:22:00,39.0,35.0,30.19,NNW,339,12.0,17.0,87,0.00,,,0.99,,2013-01-14 09:22:00,
2013-01-14 03:33:00,38.0,34.0,30.18,NNW,337,11.0,19.0,87,0.00,,,0.99,,2013-01-14 09:33:00,
2013-01-14 03:42:00,38.0,34.0,30.18,NNW,337,11.0,19.0,87,0.00,,,0.99,,2013-01-14 09:42:00,
2013-01-14 03:52:00,38.0,34.0,30.18,North,5,12.0,19.0,87,0.00,,,0.98,,2013-01-14 09:52:00,
2013-01-14 04:02:00,38.0,34.0,30.18,North,5,12.0,18.0,86,0.00,,,0.98,,2013-01-14 10:02:00,
2013-01-14 04:12:00,38.0,34.0,30.18,North,5,12.0,18.0,86,0.00,,,0.98,,2013-01-14 10:12:00,
2013-01-14 04:22:00,37.0,33.0,30.18,North,355,12.0,19.0,86,0.00,,,0.98,,2013-01-14 10:22:00,
2013-01-14 04:32:00,37.0,34.0,30.16,North,355,16.0,21.0,87,0.00,,,0.98,,2013-01-14 10:32:00,
2013-01-14 04:42:00,37.0,34.0,30.16,North,355,16.0,21.0,87,0.00,,,0.98,,2013-01-14 10:42:00,
2013-01-14 04:52:00,37.0,34.0,30.17,North,5,13.0,22.0,87,0.00,,,0.97,,2013-01-14 10:52:00,
2013-01-14 05:02:00,36.0,33.0,30.16,North,350,14.0,20.0,87,0.00,,,0.97,,2013-01-14 11:02:00,
2013-01-14 05:12:00,36.0,33.0,30.16,North,350,14.0,20.0,87,0.00,,,0.97,,2013-01-14 11:12:00,
2013-01-14 05:22:00,36.0,33.0,30.17,North,350,13.0,17.0,88,0.00,,,0.97,,2013-01-14 11:22:00,
2013-01-14 05:32:00,36.0,33.0,30.17,NNW,338,12.0,19.0,87,0.00,,,0.97,,2013-01-14 11:32:00,
2013-01-14 05:42:00,36.0,33.0,30.17,NNW,338,12.0,19.0,87,0.00,,,0.97,,2013-01-14 11:42:00,
2013-01-14 05:53:00,36.0,33.0,30.16,North,5,14.0,19.0,88,0.00,,,0.97,,2013-01-14 11:53:00,
2013-01-14 06:03:00,36.0,33.0,30.19,North,355,8.0,16.0,88,0.00,,,0.97,,2013-01-14 12:03:00,
2013-01-14 06:12:00,36.0,33.0,30.19,North,355,8.0,16.0,88,0.00,,,0.97,,2013-01-14 12:12:00,
2013-01-14 06:23:00,36.0,33.0,30.17,NNE,14,12.0,18.0,88,0.00,,,0.97,,2013-01-14 12:23:00,
2013-01-14 06:33:00,36.0,33.0,30.18,NNW,340,9.0,18.0,88,0.00,,,0.97,,2013-01-14 12:33:00,
2013-01-14 06:43:00,36.0,33.0,30.18,NNW,340,9.0,18.0,88,0.00,,,0.97,,2013-01-14 12:43:00,
2013-01-14 06:53:00,35.0,32.0,30.19,North,360,12.0,17.0,87,0.00,,,0.97,,2013-01-14 12:53:00,
2013-01-14 07:03:00,35.0,32.0,30.18,North,355,10.0,19.0,87,0.00,,,0.97,,2013-01-14 13:03:00,
2013-01-14 07:12:00,35.0,32.0,30.18,North,355,10.0,19.0,87,0.00,,,0.97,,2013-01-14 13:12:00,
2013-01-14 07:23:00,35.0,32.0,30.18,North,360,13.0,18.0,88,0.00,,,0.97,,2013-01-14 13:23:00,
2013-01-14 07:33:00,35.0,31.0,30.19,North,355,11.0,19.0,86,0.00,,,0.97,,2013-01-14 13:33:00,
2013-01-14 07:43:00,35.0,31.0,30.19,North,355,11.0,19.0,86,0.00,,,0.97,,2013-01-14 13:43:00,
2013-01-14 07:53:00,35.0,31.0,30.20,North,355,15.0,21.0,85,0.00,,,0.97,,2013-01-14 13:53:00,
2013-01-14 08:03:00,35.0,31.0,30.20,North,355,14.0,19.0,86,0.00,,,0.97,,2013-01-14 14:03:00,
2013-01-14 08:13:00,35.0,31.0,30.20,North,355,14.0,19.0,86,0.00,,,0.97,,2013-01-14 14:13:00,
2013-01-14 08:22:00,35.0,32.0,30.21,NNW,342,17.0,23.0,88,0.00,,,0.97,,2013-01-14 14:22:00,
2013-01-14 08:33:00,34.0,31.0,30.19,North,11,14.0,21.0,87,0.00,,,0.97,,2013-01-14 14:33:00,
2013-01-14 08:43:00,34.0,31.0,30.19,North,11,14.0,21.0,87,0.00,,,0.97,,2013-01-14 14:43:00,
2013-01-14 08:53:00,34.0,30.0,30.22,NNW,342,16.0,25.0,86,0.00,,,0.96,,2013-01-14 14:53:00,
2013-01-14 09:03:00,34.0,30.0,30.19,NNW,344,16.0,24.0,86,0.00,,,0.96,,2013-01-14 15:03:00,
2013-01-14 09:12:00,34.0,30.0,30.19,NNW,344,16.0,24.0,86,0.00,,,0.96,,2013-01-14 15:12:00,
2013-01-14 09:23:00,34.0,30.0,30.22,North,5,15.0,19.0,85,0.00,,,0.96,,2013-01-14 15:23:00,
2013-01-14 09:33:00,34.0,30.0,30.24,North,355,15.0,23.0,86,0.00,,,0.96,,2013-01-14 15:33:00,
2013-01-14 09:43:00,34.0,30.0,30.24,North,355,15.0,23.0,86,0.00,,,0.96,,2013-01-14 15:43:00,
2013-01-14 09:53:00,34.0,30.0,30.24,NNW,340,16.0,24.0,86,0.00,,,0.92,,2013-01-14 15:53:00,
2013-01-14 10:03:00,33.0,30.0,30.24,NNE,13,15.0,23.0,87,0.01,,,0.93,,2013-01-14 16:03:00,
2013-01-14 10:12:00,33.0,30.0,30.24,NNE,13,15.0,23.0,87,0.01,,,0.93,,2013-01-14 16:12:00,
2013-01-14 10:23:00,33.0,30.0,30.28,NNW,336,18.0,23.0,88,0.02,,,0.94,,2013-01-14 16:23:00,
2013-01-14 10:33:00,33.0,31.0,30.24,NW,324,17.0,21.0,91,0.04,,,0.96,,2013-01-14 16:33:00,
2013-01-14 10:43:00,33.0,31.0,30.24,NW,324,17.0,21.0,91,0.04,,,0.96,,2013-01-14 16:43:00,
2013-01-14 10:53:00,32.0,30.0,30.30,WNW,299,15.0,24.0,92,0.07,,,0.80,,2013-01-14 16:53:00,
2013-01-14 11:03:00,32.0,30.0,30.25,NNW,342,20.0,26.0,92,0.15,,,0.89,,2013-01-14 17:03:00,
2013-01-14 11:12:00,32.0,30.0,30.25,NNW,342,20.0,26.0,92,0.15,,,0.89,,2013-01-14 17:12:00,
2013-01-14 11:23:00,32.0,30.0,30.26,NNW,333,18.0,27.0,93,0.15,,,0.90,,2013-01-14 17:23:00,
2013-01-14 11:33:00,32.0,30.0,30.24,North,5,16.0,26.0,93,0.16,,,0.93,,2013-01-14 17:33:00,
2013-01-14 11:43:00,32.0,30.0,30.24,North,5,16.0,26.0,93,0.16,,,0.93,,2013-01-14 17:43:00,
2013-01-14 11:53:00,31.0,29.0,30.24,NNW,346,13.0,24.0,93,0.18,,,0.98,,2013-01-14 17:53:00,
2013-01-14 12:03:00,32.0,30.0,30.25,North,350,15.0,22.0,94,0.10,,,0.99,,2013-01-14 18:03:00,
2013-01-14 12:12:00,32.0,30.0,30.25,North,350,15.0,22.0,94,0.10,,,0.99,,2013-01-14 18:12:00,
2013-01-14 12:23:00,32.0,30.0,30.22,NNW,340,19.0,24.0,94,0.11,,,1.01,,2013-01-14 18:23:00,
2013-01-14 12:33:00,31.0,29.0,30.22,North,355,13.0,23.0,93,0.09,,,1.03,,2013-01-14 18:33:00,
2013-01-14 12:43:00,31.0,29.0,30.22,North,355,13.0,23.0,93,0.09,,,1.03,,2013-01-14 18:43:00,
2013-01-14 12:52:00,31.0,29.0,30.24,NNW,330,14.0,18.0,93,0.08,,,0.78,,2013-01-14 18:52:00,
2013-01-14 13:03:00,31.0,29.0,30.24,NNW,348,11.0,17.0,94,0.13,,,0.85,,2013-01-14 19:03:00,
2013-01-14 13:12:00,31.0,29.0,30.24,NNW,348,11.0,17.0,94,0.13,,,0.85,,2013-01-14 19:12:00,
2013-01-14 13:22:00,31.0,29.0,30.24,NNW,340,8.0,13.0,94,0.16,,,0.89,,2013-01-14 19:22:00,
2013-01-14 13:33:00,31.0,29.0,30.25,NNW,348,0.0,0.0,94,0.18,,,0.93,,2013-01-14 19:33:00,
2013-01-14 13:43:00,31.0,29.0,30.25,NNW,348,0.0,0.0,94,0.18,,,0.93,,2013-01-14 19:43:00,
2013-01-14 13:52:00,31.0,29.0,30.25,North,360,0.0,0.0,94,0.15,,,0.61,,2013-01-14 19:52:00,
2013-01-14 14:03:00,31.0,29.0,30.25,NNW,330,0.0,0.0,94,0.10,,,0.64,,2013-01-14 20:03:00,
2013-01-14 14:13:00,31.0,29.0,30.25,NNW,330,0.0,0.0,94,0.10,,,0.64,,2013-01-14 20:13:00,
2013-01-14 14:22:00,31.0,30.0,30.24,NNW,330,0.0,0.0,95,0.07,,,0.65,,2013-01-14 20:22:00,
2013-01-14 14:33:00,32.0,31.0,30.24,NNW,330,0.0,0.0,95,0.06,,,0.67,,2013-01-14 20:33:00,
2013-01-14 14:42:00,32.0,31.0,30.24,NNW,330,0.0,0.0,95,0.06,,,0.67,,2013-01-14 20:42:00,
2013-01-14 14:53:00,32.0,30.0,30.24,NNW,330,0.0,0.0,94,0.05,,,0.56,,2013-01-14 20:53:00,
2013-01-14 15:03:00,32.0,30.0,30.24,NNW,330,0.0,0.0,94,0.06,,,0.60,,2013-01-14 21:03:00,
2013-01-14 15:12:00,32.0,30.0,30.24,NNW,330,0.0,0.0,94,0.06,,,0.60,,2013-01-14 21:12:00,
2013-01-14 15:23:00,32.0,30.0,30.22,NNW,330,0.0,0.0,94,0.06,,,0.61,,2013-01-14 21:23:00,
2013-01-14 15:33:00,32.0,31.0,30.23,NNW,330,0.0,0.0,95,0.06,,,0.63,,2013-01-14 21:33:00,
2013-01-14 15:42:00,32.0,31.0,30.23,NNW,330,0.0,0.0,95,0.06,,,0.63,,2013-01-14 21:42:00,
2013-01-14 15:53:00,32.0,30.0,30.24,NNW,330,0.0,0.0,94,0.07,,,0.61,,2013-01-14 21:53:00,
2013-01-14 16:03:00,32.0,30.0,30.23,NNW,330,0.0,0.0,94,0.05,,,0.62,,2013-01-14 22:03:00,
2013-01-14 16:12:00,32.0,30.0,30.23,NNW,330,0.0,0.0,94,0.05,,,0.62,,2013-01-14 22:12:00,
2013-01-14 16:23:00,32.0,30.0,30.24,NNW,330,0.0,0.0,94,0.04,,,0.62,,2013-01-14 22:23:00,
2013-01-14 16:33:00,32.0,30.0,30.25,NNW,330,0.0,0.0,94,0.02,,,0.62,,2013-01-14 22:33:00,
2013-01-14 16:43:00,32.0,30.0,30.25,NNW,330,0.0,0.0,94,0.02,,,0.62,,2013-01-14 22:43:00,
2013-01-14 16:52:00,32.0,30.0,30.25,NNW,330,0.0,0.0,94,0.02,,,0.63,,2013-01-14 22:52:00,
2013-01-14 17:03:00,32.0,30.0,30.25,NNW,331,0.0,0.0,94,0.01,,,0.63,,2013-01-14 23:03:00,
2013-01-14 17:12:00,32.0,30.0,30.25,NNW,331,0.0,0.0,94,0.01,,,0.63,,2013-01-14 23:12:00,
2013-01-14 17:23:00,32.0,30.0,30.24,NNW,331,0.0,0.0,94,0.02,,,0.64,,2013-01-14 23:23:00,
2013-01-14 17:33:00,32.0,30.0,30.26,NNW,331,0.0,0.0,93,0.02,,,0.64,,2013-01-14 23:33:00,
2013-01-14 17:43:00,32.0,30.0,30.26,NNW,331,0.0,0.0,93,0.02,,,0.64,,2013-01-14 23:43:00,
2013-01-14 17:52:00,32.0,30.0,30.25,NNW,331,0.0,0.0,93,0.01,,,0.64,,2013-01-14 23:52:00,
2013-01-14 18:02:00,32.0,30.0,30.24,NNW,331,0.0,0.0,93,0.01,,,0.64,,2013-01-15 00:02:00,
2013-01-14 18:12:00,32.0,30.0,30.24,NNW,331,0.0,0.0,93,0.01,,,0.64,,2013-01-15 00:12:00,
2013-01-14 18:22:00,32.0,30.0,30.23,NNW,331,0.0,0.0,93,0.00,,,0.64,,2013-01-15 00:22:00,
2013-01-14 18:33:00,32.0,30.0,30.24,NNW,331,0.0,0.0,93,0.00,,,0.64,,2013-01-15 00:33:00,
2013-01-14 18:43:00,32.0,30.0,30.24,NNW,331,0.0,0.0,93,0.00,,,0.64,,2013-01-15 00:43:00,
2013-01-14 18:52:00,32.0,30.0,30.24,NNW,331,0.0,0.0,93,0.00,,,0.64,,2013-01-15 00:52:00,
2013-01-14 19:02:00,32.0,30.0,30.24,NNW,331,0.0,0.0,93,0.00,,,0.64,,2013-01-15 01:02:00,
2013-01-14 19:12:00,32.0,30.0,30.24,NNW,331,0.0,0.0,93,0.00,,,0.64,,2013-01-15 01:12:00,
2013-01-14 19:22:00,32.0,30.0,30.24,NNW,331,0.0,0.0,93,0.00,,,0.64,,2013-01-15 01:22:00,
2013-01-14 19:32:00,32.0,30.0,30.24,NNW,331,0.0,0.0,92,0.00,,,0.64,,2013-01-15 01:32:00,
2013-01-14 19:43:00,32.0,30.0,30.24,NNW,331,0.0,0.0,92,0.00,,,0.64,,2013-01-15 01:43:00,
2013-01-14 19:52:00,32.0,30.0,30.24,NNW,331,0.0,0.0,93,0.00,,,0.64,,2013-01-15 01:52:00,
2013-01-14 20:02:00,32.0,30.0,30.23,NNW,331,0.0,0.0,93,0.00,,,0.64,,2013-01-15 02:02:00,
2013-01-14 20:12:00,32.0,30.0,30.23,NNW,331,0.0,0.0,93,0.00,,,0.64,,2013-01-15 02:12:00,
2013-01-14 20:22:00,32.0,30.0,30.23,NNW,342,0.0,1.0,93,0.00,,,0.64,,2013-01-15 02:22:00,
2013-01-14 20:32:00,32.0,30.0,30.23,North,360,0.0,0.0,93,0.00,,,0.64,,2013-01-15 02:32:00,
2013-01-14 20:42:00,32.0,30.0,30.23,North,360,0.0,0.0,93,0.00,,,0.64,,2013-01-15 02:42:00,
2013-01-14 20:52:00,32.0,30.0,30.22,North,5,0.0,0.0,93,0.00,,,0.64,,2013-01-15 02:52:00,
2013-01-14 21:02:00,32.0,30.0,30.22,NNE,14,0.0,0.0,93,0.00,,,0.64,,2013-01-15 03:02:00,
2013-01-14 21:12:00,32.0,30.0,30.22,NNE,14,0.0,0.0,93,0.00,,,0.64,,2013-01-15 03:12:00,
2013-01-14 21:22:00,32.0,30.0,30.22,North,355,0.0,0.0,94,0.00,,,0.64,,2013-01-15 03:22:00,
2013-01-14 21:33:00,32.0,30.0,30.21,North,350,0.0,0.0,94,0.00,,,0.64,,2013-01-15 03:33:00,
2013-01-14 21:42:00,32.0,30.0,30.21,North,350,0.0,0.0,94,0.00,,,0.64,,2013-01-15 03:42:00,
2013-01-14 21:52:00,32.0,30.0,30.21,North,355,0.0,0.0,93,0.00,,,0.64,,2013-01-15 03:52:00,
2013-01-14 22:02:00,32.0,30.0,30.21,North,360,0.0,0.0,93,0.00,,,0.64,,2013-01-15 04:02:00,
2013-01-14 22:12:00,32.0,30.0,30.21,North,360,0.0,0.0,93,0.00,,,0.64,,2013-01-15 04:12:00,
2013-01-14 22:22:00,32.0,30.0,30.21,North,5,0.0,0.0,93,0.00,,,0.64,,2013-01-15 04:22:00,
2013-01-14 22:32:00,32.0,30.0,30.20,North,355,0.0,0.0,93,0.00,,,0.64,,2013-01-15 04:32:00,
2013-01-14 22:42:00,32.0,30.0,30.20,North,355,0.0,0.0,93,0.00,,,0.64,,2013-01-15 04:42:00,
2013-01-14 22:52:00,32.0,30.0,30.20,North,350,0.0,0.0,94,0.00,,,0.64,,2013-01-15 04:52:00,
2013-01-14 23:03:00,32.0,30.0,30.19,North,351,0.0,0.0,94,0.00,,,0.64,,2013-01-15 05:03:00,
2013-01-14 23:12:00,32.0,30.0,30.19,North,351,0.0,0.0,94,0.00,,,0.64,,2013-01-15 05:12:00,
2013-01-14 23:22:00,32.0,30.0,30.19,NNW,348,0.0,0.0,94,0.00,,,0.64,,2013-01-15 05:22:00,
2013-01-14 23:33:00,32.0,30.0,30.20,NNW,342,0.0,0.0,93,0.00,,,0.64,,2013-01-15 05:33:00,
2013-01-14 23:42:00,32.0,30.0,30.20,NNW,342,0.0,0.0,93,0.00,,,0.64,,2013-01-15 05:42:00,
2013-01-14 23:52:00,32.0,30.0,30.19,North,355,0.0,0.0,93,0.00,,,0.64,,2013-01-15 05:52:00,